Date,TemperatureHighF,TemperatureAvgF,TemperatureLowF,DewpointHighF,DewpointAvgF,DewpointLowF,HumidityHigh,HumidityAvg,HumidityLow,PressureMaxIn,PressureMinIn,WindSpeedMaxMPH,WindSpeedAvgMPH,GustSpeedMaxMPH,PrecipitationSumIn
2013-3-1,33,28,24,23,21,17,80,74,64,30.08,29.93,5,1,9,0.04
2013-3-2,28,24,21,19,17,15,82,74,66,30.07,30.01,5,0,9,0.01
2013-3-4,28,23,18,19,17,15,86,79,67,30.07,30.02,0,0,0,0.04
2013-3-5,33,24,14,27,20,11,91,84,70,30.08,29.86,18,1,18,0.01
2013-3-6,41,34,30,33,29,25,92,83,70,30.15,29.89,6,1,12,0.01
2013-3-7,37,32,23,31,24,18,92,75,53,30.35,30.14,4,0,10,0.01
2013-3-8,40,29,17,27,21,14,90,75,55,30.43,30.34,5,0,7,0.00
2013-3-9,43,34,23,33,28,21,93,79,61,30.35,29.97,5,0,12,0.01
2013-3-10,49,42,34,42,37,31,92,85,76,29.97,29.71,2,0,5,0.13
2013-3-11,49,44,37,48,42,33,96,92,85,29.72,29.38,13,1,14,0.38
2013-3-12,37,34,30,34,29,25,91,83,70,29.80,29.53,10,2,16,0.18
2013-3-13,34,29,24,25,19,15,86,69,46,30.12,29.78,7,2,17,0.01
2013-3-14,41,31,22,24,19,15,79,63,45,30.17,29.98,6,1,10,0.01
2013-3-15,42,36,31,32,28,21,83,74,56,29.98,29.79,5,1,17,0.01
2013-3-16,32,28,24,27,24,21,90,85,78,29.97,29.75,6,1,11,0.01
2013-3-17,30,24,17,22,15,10,88,70,48,30.24,29.97,5,1,10,0.01
2013-3-18,33,27,19,31,23,13,94,83,68,30.16,29.48,5,1,16,0.01
2013-3-19,34,26,22,32,20,15,94,78,66,29.80,29.47,13,3,21,0.01
2013-3-20,28,23,18,18,14,11,77,68,56,29.85,29.79,10,2,17,0.00
2013-3-21,33,26,17,24,19,11,84,75,63,29.86,29.75,5,1,12,0.00
2013-3-22,40,30,25,26,22,18,85,71,57,29.96,29.86,5,1,12,0.01
2013-3-23,39,32,27,28,25,23,87,76,62,30.05,29.96,3,0,5,0.03
2013-3-24,39,31,23,29,25,21,93,81,56,30.01,29.67,13,2,17,0.02
2013-3-25,43,36,31,31,29,26,84,75,57,29.88,29.62,6,2,14,0.03
2013-3-26,44,37,32,35,30,26,87,75,62,30.05,29.88,4,0,7,0.03
2013-3-27,49,39,31,31,27,24,81,65,47,30.14,30.04,9,1,16,0.01
2013-3-28,54,41,31,30,27,24,78,58,39,30.21,30.14,5,0,11,0.00
2013-3-29,53,39,25,30,25,21,86,60,36,30.21,30.12,5,0,9,0.00